Location: Unnamed
(48.2382°N, 16.3826°E)
Time: 07:43:29
(UTC+02:00)

Falcon 9 debris - Pass Details

Date: 21 August 2020
Orbit: 426 x 434 km, 53.0° (Epoch: 21 September)

Event Time Altitude Azimuth Distance (km) Brightness Sun altitude
Rises 22:11:13 0° 296° (WNW) 2,412 ? -19.6°
Reaches altitude 10° 22:13:20 10° 294° (WNW) 1,542 ? -19.9°
Enters shadow 22:16:42 73° 226° (SW) 459 ? -20.3°
